TimeMST,TemperatureF,Dew PointF,Humidity,Sea Level PressureIn,VisibilityMPH,Wind Direction,Wind SpeedMPH,Gust SpeedMPH,PrecipitationIn,Events,Conditions,WindDirDegrees,DateUTC
12:53 AM,24.1,19.9,84,29.88,7.0,South,3.5,-,N/A,,Clear,190,2013-12-19 07:53:00
1:53 AM,25.0,21.9,88,29.91,9.0,East,6.9,-,N/A,,Scattered Clouds,90,2013-12-19 08:53:00
2:53 AM,30.0,21.9,72,29.81,10.0,SW,8.1,-,N/A,,Scattered Clouds,230,2013-12-19 09:53:00
3:53 AM,25.0,21.0,85,29.81,10.0,East,8.1,-,N/A,,Partly Cloudy,90,2013-12-19 10:53:00
4:53 AM,25.0,19.9,81,29.77,10.0,SSE,8.1,-,N/A,,Clear,160,2013-12-19 11:53:00
5:53 AM,25.0,19.0,78,29.76,10.0,SSE,9.2,-,N/A,,Clear,150,2013-12-19 12:53:00
6:53 AM,19.9,16.0,85,29.76,10.0,SSE,5.8,-,N/A,,Clear,150,2013-12-19 13:53:00
7:53 AM,21.9,17.1,82,29.76,10.0,South,4.6,-,N/A,,Clear,170,2013-12-19 14:53:00
8:53 AM,25.0,19.0,78,29.77,10.0,SE,10.4,-,N/A,,Clear,130,2013-12-19 15:53:00
9:53 AM,32.0,21.9,66,29.74,10.0,Calm,Calm,-,N/A,,Clear,0,2013-12-19 16:53:00
10:53 AM,36.0,24.1,62,29.72,10.0,SSE,6.9,-,N/A,,Clear,150,2013-12-19 17:53:00
11:53 AM,41.0,26.1,55,29.68,10.0,North,4.6,-,N/A,,Clear,10,2013-12-19 18:53:00
12:53 PM,37.9,26.1,62,29.67,10.0,NE,4.6,-,N/A,,Clear,40,2013-12-19 19:53:00
1:53 PM,43.0,24.1,47,29.63,10.0,NNW,9.2,-,N/A,,Clear,340,2013-12-19 20:53:00
2:53 PM,46.0,23.0,40,29.62,10.0,North,9.2,-,N/A,,Scattered Clouds,10,2013-12-19 21:53:00
3:53 PM,46.0,25.0,44,29.65,10.0,Calm,Calm,-,N/A,,Mostly Cloudy,0,2013-12-19 22:53:00
4:53 PM,43.0,26.1,51,29.69,10.0,Variable,3.5,-,N/A,,Clear,0,2013-12-19 23:53:00
5:53 PM,35.1,26.1,70,29.76,10.0,West,5.8,-,N/A,,Mostly Cloudy,280,2013-12-20 00:53:00
6:53 PM,34.0,27.0,75,29.79,10.0,ESE,8.1,-,N/A,,Mostly Cloudy,110,2013-12-20 01:53:00
7:53 PM,34.0,27.0,75,29.78,10.0,South,8.1,-,N/A,,Overcast,170,2013-12-20 02:53:00
8:53 PM,34.0,26.1,73,29.76,10.0,SSE,6.9,-,N/A,,Mostly Cloudy,150,2013-12-20 03:53:00
9:53 PM,33.1,27.0,78,29.74,10.0,ESE,6.9,-,N/A,,Overcast,110,2013-12-20 04:53:00
10:53 PM,34.0,27.0,75,29.73,10.0,ESE,4.6,-,N/A,,Mostly Cloudy,120,2013-12-20 05:53:00
11:53 PM,30.9,26.1,82,29.72,10.0,West,5.8,-,N/A,,Scattered Clouds,260,2013-12-20 06:53:00